Starlink 32837

operational
NORAD ID: 62812 Int'l Des: 2025-018 Owner: SPXS Country: US Constellation: starlink
LEOCIRCULAR

About Starlink 32837

Description loading...

Live Position

Loading 3D Globe...

Upcoming Passes

Altitude History

Altitude vs Time

uPlot chart will show altitude changes over time

Two-Line Element Set

1 62812U 25018G 25256.70683172 .00028237 00000-0 96195-3 0 9994
2 62812 53.1605 51.5249 0001063 86.4740 273.6383 15.30196964 36089
Epoch: Sep 13, 2025 • Age: 43 hours

Current Status

Altitude 480.5 km
Velocity 7.63 km/s
Sub-Earth Point -19.21°S, 60.88°E
Launch Date Jan 24, 2025
Age 0.6 years
Type internet

Technical Details

Classification Payload
Mass 730.00 kg
Dry Mass 700.00 kg
Total Mass 730.00 kg
Length 0.30 m
Diameter 4.10 m
Span 29.00 m
Shape Box + pan
Manufacturer SPXS
Bus Type Starlink V2M
Phase Status In Orbit
Owner/State SPXS/US

Large Constellations

Loading constellations...